Time,TemperatureF,DewpointF,PressureIn,WindDirection,WindDirectionDegrees,WindSpeedMPH,WindSpeedGustMPH,Humidity,HourlyPrecipIn,Conditions,Clouds,dailyrainin,SoftwareType,DateUTC
2013-07-14 00:00:00,71.7,64.5,30.18,ENE,75,1.0,2.0,78,0.00,,---,0.00,VWS V14.01,2013-07-14 04:00:00,
2013-07-14 00:01:00,71.8,64.9,30.18,South,174,3.0,6.0,79,0.00,,---,0.00,VWS V14.01,2013-07-14 04:01:00,
2013-07-14 00:02:00,71.8,64.9,30.18,SSE,162,3.0,5.0,79,0.00,,---,0.00,VWS V14.01,2013-07-14 04:02:00,
2013-07-14 00:03:00,71.7,65.2,30.18,SSE,148,4.0,5.0,80,0.00,,---,0.00,VWS V14.01,2013-07-14 04:03:00,
2013-07-14 00:08:00,71.5,65.0,30.18,SE,130,3.0,6.0,80,0.00,,---,0.00,VWS V14.01,2013-07-14 04:08:00,
2013-07-14 00:13:00,71.3,64.8,30.18,South,181,2.0,6.0,80,0.00,,---,0.00,VWS V14.01,2013-07-14 04:13:00,
2013-07-14 00:18:00,71.1,65.0,30.18,ESE,121,0.0,6.0,81,0.00,,---,0.00,VWS V14.01,2013-07-14 04:18:00,
2013-07-14 00:23:00,71.0,64.9,30.18,SE,127,0.0,6.0,81,0.00,,---,0.00,VWS V14.01,2013-07-14 04:23:00,
2013-07-14 00:28:00,70.8,64.7,30.18,South,189,2.0,6.0,81,0.00,,---,0.00,VWS V14.01,2013-07-14 04:28:00,
2013-07-14 00:33:00,70.6,64.8,30.18,SE,130,1.0,6.0,82,0.00,,---,0.00,VWS V14.01,2013-07-14 04:33:00,
2013-07-14 00:38:00,70.5,64.8,30.18,ESE,108,1.0,6.0,82,0.00,,---,0.00,VWS V14.01,2013-07-14 04:38:00,
2013-07-14 00:43:00,70.4,64.3,30.19,East,82,1.0,6.0,81,0.00,,---,0.00,VWS V14.01,2013-07-14 04:43:00,
2013-07-14 00:49:00,70.3,64.2,30.19,ESE,118,2.0,6.0,81,0.00,,---,0.00,VWS V14.01,2013-07-14 04:49:00,
2013-07-14 00:54:00,70.3,64.2,30.19,ESE,114,0.0,6.0,81,0.00,,---,0.00,VWS V14.01,2013-07-14 04:54:00,
2013-07-14 00:59:00,70.2,64.1,30.19,ESE,102,0.0,6.0,81,0.00,,---,0.00,VWS V14.01,2013-07-14 04:59:00,
2013-07-14 01:00:00,71.8,64.9,30.18,South,174,3.0,6.0,79,0.00,,---,0.00,VWS V14.01,2013-07-14 05:00:00,
2013-07-14 01:04:00,70.1,64.0,30.19,ESE,105,0.0,1.0,81,0.00,,---,0.00,VWS V14.01,2013-07-14 05:04:00,
2013-07-14 01:09:00,69.9,64.2,30.18,SE,130,1.0,2.0,82,0.00,,---,0.00,VWS V14.01,2013-07-14 05:09:00,
2013-07-14 01:14:00,69.7,64.0,30.19,ESE,113,0.0,2.0,82,0.00,,---,0.00,VWS V14.01,2013-07-14 05:14:00,
2013-07-14 01:19:00,69.5,63.8,30.18,ESE,113,0.0,2.0,82,0.00,,---,0.00,VWS V14.01,2013-07-14 05:19:00,
2013-07-14 01:24:00,69.3,63.6,30.18,ESE,121,1.0,2.0,82,0.00,,---,0.00,VWS V14.01,2013-07-14 05:24:00,
2013-07-14 01:29:00,69.1,63.7,30.18,ESE,122,0.0,2.0,83,0.00,,---,0.00,VWS V14.01,2013-07-14 05:29:00,
2013-07-14 01:34:00,68.8,63.4,30.19,ESE,118,0.0,2.0,83,0.00,,---,0.00,VWS V14.01,2013-07-14 05:34:00,
2013-07-14 01:39:00,68.7,63.3,30.18,SE,124,0.0,2.0,83,0.00,,---,0.00,VWS V14.01,2013-07-14 05:39:00,
2013-07-14 01:44:00,68.5,63.5,30.19,SE,124,0.0,2.0,84,0.00,,---,0.00,VWS V14.01,2013-07-14 05:44:00,
2013-07-14 01:49:00,68.0,63.3,30.18,East,94,1.0,2.0,85,0.00,,---,0.00,VWS V14.01,2013-07-14 05:49:00,
2013-07-14 01:55:00,67.8,63.5,30.18,East,82,0.0,2.0,86,0.00,,---,0.00,VWS V14.01,2013-07-14 05:55:00,
2013-07-14 02:00:00,67.9,63.2,30.18,East,82,0.0,2.0,85,0.00,,---,0.00,VWS V14.01,2013-07-14 06:00:00,
2013-07-14 02:05:00,67.7,63.0,30.18,East,82,0.0,0.0,85,0.00,,---,0.00,VWS V14.01,2013-07-14 06:05:00,
2013-07-14 02:10:00,67.2,62.9,30.18,East,82,0.0,0.0,86,0.00,,---,0.00,VWS V14.01,2013-07-14 06:10:00,
2013-07-14 02:15:00,66.7,63.0,30.18,ENE,73,1.0,1.0,88,0.00,,---,0.00,VWS V14.01,2013-07-14 06:15:00,
2013-07-14 02:20:00,66.3,63.0,30.18,ENE,73,0.0,1.0,89,0.00,,---,0.00,VWS V14.01,2013-07-14 06:20:00,
2013-07-14 02:25:00,65.9,62.9,30.18,ENE,73,0.0,1.0,90,0.00,,---,0.00,VWS V14.01,2013-07-14 06:25:00,
2013-07-14 02:30:00,65.6,62.6,30.18,ENE,74,0.0,1.0,90,0.00,,---,0.00,VWS V14.01,2013-07-14 06:30:00,
2013-07-14 02:35:00,65.3,62.6,30.18,ENE,74,0.0,1.0,91,0.00,,---,0.00,VWS V14.01,2013-07-14 06:35:00,
2013-07-14 02:40:00,65.1,62.4,30.18,ENE,74,0.0,1.0,91,0.00,,---,0.00,VWS V14.01,2013-07-14 06:40:00,
2013-07-14 02:45:00,64.9,62.2,30.18,ENE,73,0.0,1.0,91,0.00,,---,0.00,VWS V14.01,2013-07-14 06:45:00,
2013-07-14 02:50:00,64.7,62.3,30.18,ENE,74,0.0,1.0,92,0.00,,---,0.00,VWS V14.01,2013-07-14 06:50:00,
2013-07-14 02:55:00,64.5,62.1,30.18,ENE,73,0.0,1.0,92,0.00,,---,0.00,VWS V14.01,2013-07-14 06:55:00,
2013-07-14 03:00:00,64.3,61.9,30.18,ENE,73,0.0,1.0,92,0.00,,---,0.00,VWS V14.01,2013-07-14 07:00:00,
2013-07-14 03:06:00,64.1,62.0,30.18,ENE,74,0.0,0.0,93,0.00,,---,0.00,VWS V14.01,2013-07-14 07:06:00,
2013-07-14 03:11:00,64.1,62.0,30.18,ENE,73,0.0,0.0,93,0.00,,---,0.00,VWS V14.01,2013-07-14 07:11:00,
2013-07-14 03:16:00,64.0,61.9,30.18,ENE,73,0.0,0.0,93,0.00,,---,0.00,VWS V14.01,2013-07-14 07:16:00,
2013-07-14 03:21:00,63.8,61.7,30.18,ENE,73,0.0,0.0,93,0.00,,---,0.00,VWS V14.01,2013-07-14 07:21:00,
2013-07-14 03:26:00,63.8,61.7,30.18,ENE,74,0.0,0.0,93,0.00,,---,0.00,VWS V14.01,2013-07-14 07:26:00,
2013-07-14 03:31:00,63.8,61.7,30.18,ENE,73,0.0,1.0,93,0.00,,---,0.00,VWS V14.01,2013-07-14 07:31:00,
2013-07-14 03:36:00,63.9,62.1,30.18,ENE,73,1.0,1.0,94,0.00,,---,0.00,VWS V14.01,2013-07-14 07:36:00,
2013-07-14 03:41:00,63.9,62.1,30.18,ENE,73,0.0,1.0,94,0.00,,---,0.00,VWS V14.01,2013-07-14 07:41:00,
2013-07-14 03:46:00,63.9,61.8,30.18,ENE,73,0.0,1.0,93,0.00,,---,0.00,VWS V14.01,2013-07-14 07:46:00,
2013-07-14 03:51:00,63.8,61.7,30.18,ENE,74,0.0,1.0,93,0.00,,---,0.00,VWS V14.01,2013-07-14 07:51:00,
2013-07-14 03:56:00,63.7,62.0,30.18,ENE,73,1.0,1.0,94,0.00,,---,0.00,VWS V14.01,2013-07-14 07:56:00,
2013-07-14 04:00:00,64.3,61.9,30.18,ENE,73,0.0,1.0,92,0.00,,---,0.00,VWS V14.01,2013-07-14 08:00:00,
2013-07-14 04:01:00,63.6,61.8,30.18,North,1,2.0,2.0,94,0.00,,---,0.00,VWS V14.01,2013-07-14 08:01:00,
2013-07-14 04:07:00,63.5,61.8,30.18,NNE,18,3.0,4.0,94,0.00,,---,0.00,VWS V14.01,2013-07-14 08:07:00,
2013-07-14 04:12:00,63.4,61.7,30.18,NE,56,1.0,4.0,94,0.00,,---,0.00,VWS V14.01,2013-07-14 08:12:00,
2013-07-14 04:17:00,63.4,62.0,30.19,NE,56,1.0,4.0,95,0.00,,---,0.00,VWS V14.01,2013-07-14 08:17:00,
2013-07-14 04:22:00,63.5,62.0,30.19,NE,56,1.0,4.0,95,0.00,,---,0.00,VWS V14.01,2013-07-14 08:22:00,
2013-07-14 04:27:00,63.4,62.0,30.19,NE,56,0.0,4.0,95,0.00,,---,0.00,VWS V14.01,2013-07-14 08:27:00,
2013-07-14 04:32:00,63.3,61.8,30.19,NE,55,0.0,4.0,95,0.00,,---,0.00,VWS V14.01,2013-07-14 08:32:00,
2013-07-14 04:37:00,63.2,61.8,30.19,NE,56,1.0,4.0,95,0.00,,---,0.00,VWS V14.01,2013-07-14 08:37:00,
2013-07-14 04:42:00,63.1,61.7,30.19,NE,56,0.0,4.0,95,0.00,,---,0.00,VWS V14.01,2013-07-14 08:42:00,
2013-07-14 04:47:00,63.0,61.5,30.18,NE,55,1.0,4.0,95,0.00,,---,0.00,VWS V14.01,2013-07-14 08:47:00,
2013-07-14 04:52:00,62.9,61.5,30.19,NE,55,1.0,4.0,95,0.00,,---,0.00,VWS V14.01,2013-07-14 08:52:00,
2013-07-14 04:58:00,63.0,61.8,30.19,ENE,57,0.0,4.0,96,0.00,,---,0.00,VWS V14.01,2013-07-14 08:58:00,
2013-07-14 05:00:00,63.6,61.8,30.18,North,359,2.0,2.0,94,0.00,,---,0.00,VWS V14.01,2013-07-14 09:00:00,
2013-07-14 05:03:00,63.3,62.1,30.19,ENE,57,0.0,1.0,96,0.00,,---,0.00,VWS V14.01,2013-07-14 09:03:00,
2013-07-14 05:08:00,63.3,61.8,30.19,NE,55,0.0,1.0,95,0.00,,---,0.00,VWS V14.01,2013-07-14 09:08:00,
2013-07-14 05:13:00,63.1,61.7,30.19,NE,56,0.0,1.0,95,0.00,,---,0.00,VWS V14.01,2013-07-14 09:13:00,
2013-07-14 05:18:00,62.9,61.5,30.19,NE,56,0.0,1.0,95,0.00,,---,0.00,VWS V14.01,2013-07-14 09:18:00,
2013-07-14 05:23:00,62.7,61.2,30.19,NE,56,0.0,1.0,95,0.00,,---,0.00,VWS V14.01,2013-07-14 09:23:00,
2013-07-14 05:28:00,62.6,61.2,30.19,NE,55,0.0,1.0,95,0.00,,---,0.00,VWS V14.01,2013-07-14 09:28:00,
2013-07-14 05:33:00,62.6,61.5,30.20,NE,56,0.0,1.0,96,0.00,,---,0.00,VWS V14.01,2013-07-14 09:33:00,
2013-07-14 05:38:00,62.4,61.0,30.20,NE,56,0.0,1.0,95,0.00,,---,0.00,VWS V14.01,2013-07-14 09:38:00,
2013-07-14 05:43:00,62.4,61.2,30.20,NE,56,0.0,1.0,96,0.00,,---,0.00,VWS V14.01,2013-07-14 09:43:00,
2013-07-14 05:48:00,62.4,61.2,30.20,NE,56,0.0,1.0,96,0.00,,---,0.00,VWS V14.01,2013-07-14 09:48:00,
2013-07-14 05:53:00,62.4,61.2,30.20,NE,56,0.0,1.0,96,0.00,,---,0.00,VWS V14.01,2013-07-14 09:53:00,
2013-07-14 05:58:00,62.1,61.0,30.20,NE,56,0.0,1.0,96,0.00,,---,0.00,VWS V14.01,2013-07-14 09:58:00,
2013-07-14 06:00:00,63.2,62.0,30.19,NE,56,0.0,4.0,96,0.00,,---,0.00,VWS V14.01,2013-07-14 10:00:00,
2013-07-14 06:04:00,62.0,60.8,30.20,NE,56,0.0,0.0,96,0.00,,---,0.00,VWS V14.01,2013-07-14 10:04:00,
2013-07-14 06:09:00,62.0,60.8,30.20,NE,56,0.0,0.0,96,0.00,,---,0.00,VWS V14.01,2013-07-14 10:09:00,
2013-07-14 06:14:00,61.9,60.8,30.20,NE,56,0.0,0.0,96,0.00,,---,0.00,VWS V14.01,2013-07-14 10:14:00,
2013-07-14 06:19:00,61.7,60.5,30.21,NE,56,0.0,0.0,96,0.00,,---,0.00,VWS V14.01,2013-07-14 10:19:00,
2013-07-14 06:24:00,61.7,60.5,30.21,NE,56,0.0,0.0,96,0.00,,---,0.00,VWS V14.01,2013-07-14 10:24:00,
2013-07-14 06:29:00,61.8,60.9,30.21,NE,55,0.0,0.0,97,0.00,,---,0.00,VWS V14.01,2013-07-14 10:29:00,
2013-07-14 06:34:00,61.9,61.0,30.21,NE,55,0.0,1.0,97,0.00,,---,0.00,VWS V14.01,2013-07-14 10:34:00,
2013-07-14 06:39:00,62.4,61.5,30.21,NE,55,0.0,1.0,97,0.00,,---,0.00,VWS V14.01,2013-07-14 10:39:00,
2013-07-14 06:44:00,62.8,61.9,30.21,NE,56,0.0,1.0,97,0.00,,---,0.00,VWS V14.01,2013-07-14 10:44:00,
2013-07-14 06:49:00,63.3,62.4,30.21,NE,56,0.0,1.0,97,0.00,,---,0.00,VWS V14.01,2013-07-14 10:49:00,
2013-07-14 06:54:00,63.7,62.5,30.21,NE,56,0.0,1.0,96,0.00,,---,0.00,VWS V14.01,2013-07-14 10:54:00,
2013-07-14 06:59:00,64.1,62.9,30.21,NE,55,0.0,1.0,96,0.00,,---,0.00,VWS V14.01,2013-07-14 10:59:00,
2013-07-14 07:00:00,62.0,60.8,30.20,NE,56,0.0,1.0,96,0.00,,---,0.00,VWS V14.01,2013-07-14 11:00:00,
2013-07-14 07:05:00,64.7,63.5,30.21,NE,56,0.0,0.0,96,0.00,,---,0.00,VWS V14.01,2013-07-14 11:05:00,
2013-07-14 07:10:00,65.2,63.7,30.21,NE,56,1.0,1.0,95,0.00,,---,0.00,VWS V14.01,2013-07-14 11:10:00,
2013-07-14 07:15:00,65.5,64.0,30.21,NNE,31,1.0,2.0,95,0.00,,---,0.00,VWS V14.01,2013-07-14 11:15:00,
2013-07-14 07:20:00,66.1,64.6,30.21,NNE,32,0.0,2.0,95,0.00,,---,0.00,VWS V14.01,2013-07-14 11:20:00,
2013-07-14 07:25:00,66.8,65.0,30.21,NNE,32,0.0,2.0,94,0.00,,---,0.00,VWS V14.01,2013-07-14 11:25:00,
2013-07-14 07:30:00,67.3,65.5,30.21,NNE,32,0.0,2.0,94,0.00,,---,0.00,VWS V14.01,2013-07-14 11:30:00,
2013-07-14 07:35:00,68.1,66.3,30.21,NNE,32,0.0,2.0,94,0.00,,---,0.00,VWS V14.01,2013-07-14 11:35:00,
2013-07-14 07:40:00,69.0,67.2,30.22,NNE,31,0.0,2.0,94,0.00,,---,0.00,VWS V14.01,2013-07-14 11:40:00,
2013-07-14 07:45:00,69.8,67.4,30.22,NNE,31,0.0,2.0,92,0.00,,---,0.00,VWS V14.01,2013-07-14 11:45:00,
2013-07-14 07:50:00,70.3,67.6,30.22,NNE,33,1.0,2.0,91,0.00,,---,0.00,VWS V14.01,2013-07-14 11:50:00,
2013-07-14 07:55:00,71.3,68.2,30.22,NNE,31,0.0,2.0,90,0.00,,---,0.00,VWS V14.01,2013-07-14 11:55:00,
2013-07-14 08:00:00,72.0,68.3,30.22,ENE,72,0.0,3.0,88,0.00,,---,0.00,VWS V14.01,2013-07-14 12:00:00,
2013-07-14 08:05:00,72.8,68.7,30.22,ESE,108,0.0,1.0,87,0.00,,---,0.00,VWS V14.01,2013-07-14 12:05:00,
2013-07-14 08:11:00,73.5,68.7,30.22,ESE,115,3.0,4.0,85,0.00,,---,0.00,VWS V14.01,2013-07-14 12:11:00,
2013-07-14 08:16:00,73.8,69.0,30.22,East,101,1.0,4.0,85,0.00,,---,0.00,VWS V14.01,2013-07-14 12:16:00,
2013-07-14 08:21:00,74.1,69.0,30.22,SE,134,3.0,4.0,84,0.00,,---,0.00,VWS V14.01,2013-07-14 12:21:00,
2013-07-14 08:26:00,74.3,69.2,30.22,East,84,3.0,6.0,84,0.00,,---,0.00,VWS V14.01,2013-07-14 12:26:00,
2013-07-14 08:31:00,74.6,69.1,30.22,East,98,4.0,6.0,83,0.00,,---,0.00,VWS V14.01,2013-07-14 12:31:00,
2013-07-14 08:36:00,74.8,69.3,30.22,SE,130,4.0,6.0,83,0.00,,---,0.00,VWS V14.01,2013-07-14 12:36:00,
2013-07-14 08:41:00,75.1,69.6,30.22,SE,135,2.0,6.0,83,0.00,,---,0.00,VWS V14.01,2013-07-14 12:41:00,
2013-07-14 08:46:00,75.4,69.9,30.22,East,91,2.0,8.0,83,0.00,,---,0.00,VWS V14.01,2013-07-14 12:46:00,
2013-07-14 08:51:00,75.8,69.9,30.22,SE,141,2.0,8.0,82,0.00,,---,0.00,VWS V14.01,2013-07-14 12:51:00,
2013-07-14 08:56:00,76.1,69.8,30.22,SE,134,5.0,8.0,81,0.00,,---,0.00,VWS V14.01,2013-07-14 12:56:00,
2013-07-14 09:00:00,72.1,68.3,30.22,ENE,72,0.0,3.0,88,0.00,,---,0.00,VWS V14.01,2013-07-14 13:00:00,
2013-07-14 09:01:00,76.4,70.1,30.22,SE,145,3.0,4.0,81,0.00,,---,0.00,VWS V14.01,2013-07-14 13:01:00,
2013-07-14 09:06:00,76.6,70.3,30.22,SE,141,3.0,5.0,81,0.00,,---,0.00,VWS V14.01,2013-07-14 13:06:00,
2013-07-14 09:11:00,77.0,70.0,30.22,SSE,149,2.0,5.0,79,0.00,,---,0.00,VWS V14.01,2013-07-14 13:11:00,
2013-07-14 09:17:00,77.1,70.1,30.22,SE,139,3.0,5.0,79,0.00,,---,0.00,VWS V14.01,2013-07-14 13:17:00,
2013-07-14 09:22:00,77.4,70.8,30.22,ENE,78,1.0,5.0,80,0.00,,---,0.00,VWS V14.01,2013-07-14 13:22:00,
2013-07-14 09:27:00,77.6,70.2,30.22,SSE,153,1.0,5.0,78,0.00,,---,0.00,VWS V14.01,2013-07-14 13:27:00,
2013-07-14 09:32:00,77.7,69.9,30.22,East,100,2.0,5.0,77,0.00,,---,0.00,VWS V14.01,2013-07-14 13:32:00,
2013-07-14 09:37:00,77.8,70.0,30.22,SE,136,2.0,5.0,77,0.00,,---,0.00,VWS V14.01,2013-07-14 13:37:00,
2013-07-14 09:39:00,77.9,70.1,30.22,SE,126,0.0,5.0,77,0.00,,---,0.00,VWS V14.01,2013-07-14 13:39:00,
2013-07-14 09:44:00,78.3,70.9,30.22,ENE,77,4.0,7.0,78,0.00,,---,0.00,VWS V14.01,2013-07-14 13:44:00,
2013-07-14 09:49:00,78.5,69.9,30.22,SE,127,2.0,7.0,75,0.00,,---,0.00,VWS V14.01,2013-07-14 13:49:00,
2013-07-14 09:54:00,78.8,71.0,30.21,ENE,76,2.0,7.0,77,0.00,,---,0.00,VWS V14.01,2013-07-14 13:54:00,
2013-07-14 09:59:00,79.3,70.7,30.22,SE,134,4.0,7.0,75,0.00,,---,0.00,VWS V14.01,2013-07-14 13:59:00,
2013-07-14 10:00:00,76.3,69.7,30.22,SE,127,2.0,8.0,80,0.00,,---,0.00,VWS V14.01,2013-07-14 14:00:00,
2013-07-14 10:04:00,79.5,70.5,30.21,East,89,1.0,2.0,74,0.00,,---,0.00,VWS V14.01,2013-07-14 14:04:00,
2013-07-14 10:09:00,80.0,70.6,30.21,East,101,3.0,7.0,73,0.00,,---,0.00,VWS V14.01,2013-07-14 14:09:00,
2013-07-14 10:14:00,80.0,71.0,30.21,ESE,111,5.0,7.0,74,0.00,,---,0.00,VWS V14.01,2013-07-14 14:14:00,
2013-07-14 10:20:00,80.1,71.5,30.21,SE,143,1.0,7.0,75,0.00,,---,0.00,VWS V14.01,2013-07-14 14:20:00,
2013-07-14 10:25:00,80.4,71.0,30.21,ESE,119,8.0,8.0,73,0.00,,---,0.00,VWS V14.01,2013-07-14 14:25:00,
2013-07-14 10:30:00,80.3,70.5,30.21,East,83,1.0,8.0,72,0.00,,---,0.00,VWS V14.01,2013-07-14 14:30:00,
2013-07-14 10:35:00,80.5,70.2,30.21,NE,56,5.0,8.0,71,0.00,,---,0.00,VWS V14.01,2013-07-14 14:35:00,
2013-07-14 10:40:00,80.5,70.7,30.21,SE,135,4.0,8.0,72,0.00,,---,0.00,VWS V14.01,2013-07-14 14:40:00,
2013-07-14 10:45:00,80.8,69.7,30.21,East,84,6.0,8.0,69,0.00,,---,0.00,VWS V14.01,2013-07-14 14:45:00,
2013-07-14 10:50:00,80.7,69.6,30.21,ESE,108,4.0,11.0,69,0.00,,---,0.00,VWS V14.01,2013-07-14 14:50:00,
2013-07-14 10:55:00,80.8,69.7,30.21,ESE,113,7.0,11.0,69,0.00,,---,0.00,VWS V14.01,2013-07-14 14:55:00,
2013-07-14 11:00:00,80.9,70.6,30.21,SSE,167,3.0,11.0,71,0.00,,---,0.00,VWS V14.01,2013-07-14 15:00:00,
2013-07-14 11:05:00,81.4,69.8,30.21,ESE,112,5.0,8.0,68,0.00,,---,0.00,VWS V14.01,2013-07-14 15:05:00,
2013-07-14 11:10:00,81.4,69.8,30.22,East,84,9.0,14.0,68,0.00,,---,0.00,VWS V14.01,2013-07-14 15:10:00,
2013-07-14 11:15:00,81.4,69.0,30.21,NE,49,10.0,14.0,66,0.00,,---,0.00,VWS V14.01,2013-07-14 15:15:00,
2013-07-14 11:20:00,81.3,70.2,30.21,East,82,5.0,14.0,69,0.00,,---,0.00,VWS V14.01,2013-07-14 15:20:00,
2013-07-14 11:25:00,81.6,69.6,30.21,SE,127,1.0,14.0,67,0.00,,---,0.00,VWS V14.01,2013-07-14 15:25:00,
2013-07-14 11:31:00,81.8,68.4,30.21,East,82,2.0,14.0,64,0.00,,---,0.00,VWS V14.01,2013-07-14 15:31:00,
2013-07-14 11:36:00,82.0,69.1,30.21,East,101,8.0,14.0,65,0.00,,---,0.00,VWS V14.01,2013-07-14 15:36:00,
2013-07-14 11:41:00,82.0,69.1,30.22,ENE,61,6.0,14.0,65,0.00,,---,0.00,VWS V14.01,2013-07-14 15:41:00,
2013-07-14 11:46:00,81.9,68.5,30.21,ESE,113,5.0,14.0,64,0.00,,---,0.00,VWS V14.01,2013-07-14 15:46:00,
2013-07-14 11:51:00,82.5,70.4,30.22,ESE,108,1.0,14.0,67,0.00,,---,0.00,VWS V14.01,2013-07-14 15:51:00,
2013-07-14 11:56:00,82.6,69.7,30.22,East,88,5.0,14.0,65,0.00,,---,0.00,VWS V14.01,2013-07-14 15:56:00,
2013-07-14 12:00:00,81.0,70.7,30.21,ESE,110,3.0,11.0,71,0.00,,---,0.00,VWS V14.01,2013-07-14 16:00:00,
2013-07-14 12:01:00,82.6,69.2,30.22,NE,53,7.0,7.0,64,0.00,,---,0.00,VWS V14.01,2013-07-14 16:01:00,
2013-07-14 12:06:00,82.5,69.1,30.21,NE,54,3.0,9.0,64,0.00,,---,0.00,VWS V14.01,2013-07-14 16:06:00,
2013-07-14 12:11:00,82.8,68.9,30.22,East,88,5.0,9.0,63,0.00,,---,0.00,VWS V14.01,2013-07-14 16:11:00,
2013-07-14 12:16:00,83.1,68.7,30.21,East,90,3.0,9.0,62,0.00,,---,0.00,VWS V14.01,2013-07-14 16:16:00,
2013-07-14 12:21:00,83.3,67.5,30.21,East,88,3.0,10.0,59,0.00,,---,0.00,VWS V14.01,2013-07-14 16:21:00,
2013-07-14 12:26:00,83.4,69.0,30.21,East,92,6.0,10.0,62,0.00,,---,0.00,VWS V14.01,2013-07-14 16:26:00,
2013-07-14 12:31:00,83.6,68.7,30.21,East,94,3.0,10.0,61,0.00,,---,0.00,VWS V14.01,2013-07-14 16:31:00,
2013-07-14 12:36:00,84.0,68.1,30.21,SE,129,0.0,10.0,59,0.00,,---,0.00,VWS V14.01,2013-07-14 16:36:00,
2013-07-14 12:42:00,84.2,68.3,30.21,SW,222,3.0,10.0,59,0.00,,---,0.00,VWS V14.01,2013-07-14 16:42:00,
2013-07-14 12:47:00,84.7,69.3,30.21,NW,309,1.0,10.0,60,0.00,,---,0.00,VWS V14.01,2013-07-14 16:47:00,
2013-07-14 12:52:00,84.9,68.0,30.21,ENE,78,3.0,10.0,57,0.00,,---,0.00,VWS V14.01,2013-07-14 16:52:00,
2013-07-14 12:57:00,84.5,68.1,30.21,South,186,0.0,10.0,58,0.00,,---,0.00,VWS V14.01,2013-07-14 16:57:00,
2013-07-14 13:00:00,82.6,70.1,30.22,East,90,6.0,14.0,66,0.00,,---,0.00,VWS V14.01,2013-07-14 17:00:00,
2013-07-14 13:02:00,84.6,68.2,30.21,SE,127,4.0,5.0,58,0.00,,---,0.00,VWS V14.01,2013-07-14 17:02:00,
2013-07-14 13:07:00,85.2,68.3,30.21,East,94,2.0,10.0,57,0.00,,---,0.00,VWS V14.01,2013-07-14 17:07:00,
2013-07-14 13:12:00,84.8,67.4,30.21,ESE,118,3.0,10.0,56,0.00,,---,0.00,VWS V14.01,2013-07-14 17:12:00,
2013-07-14 13:17:00,84.4,68.0,30.21,East,85,4.0,10.0,58,0.00,,---,0.00,VWS V14.01,2013-07-14 17:17:00,
2013-07-14 13:22:00,84.5,68.6,30.21,East,81,6.0,10.0,59,0.00,,---,0.00,VWS V14.01,2013-07-14 17:22:00,
2013-07-14 13:27:00,84.5,67.6,30.21,ESE,119,6.0,10.0,57,0.00,,---,0.00,VWS V14.01,2013-07-14 17:27:00,
2013-07-14 13:32:00,84.5,68.1,30.21,ESE,106,4.0,10.0,58,0.00,,---,0.00,VWS V14.01,2013-07-14 17:32:00,
2013-07-14 13:37:00,84.4,69.5,30.21,ESE,116,1.0,10.0,61,0.00,,---,0.00,VWS V14.01,2013-07-14 17:37:00,
2013-07-14 13:42:00,85.1,68.2,30.21,NNW,329,1.0,10.0,57,0.00,,---,0.00,VWS V14.01,2013-07-14 17:42:00,
2013-07-14 13:47:00,84.8,68.4,30.21,East,84,4.0,10.0,58,0.00,,---,0.00,VWS V14.01,2013-07-14 17:47:00,
2013-07-14 13:53:00,84.5,68.1,30.20,SW,218,2.0,10.0,58,0.00,,---,0.00,VWS V14.01,2013-07-14 17:53:00,
2013-07-14 13:58:00,85.3,69.4,30.20,South,191,2.0,10.0,59,0.00,,---,0.00,VWS V14.01,2013-07-14 17:58:00,
2013-07-14 14:00:00,84.6,67.7,30.21,SE,136,2.0,10.0,57,0.00,,---,0.00,VWS V14.01,2013-07-14 18:00:00,
2013-07-14 14:03:00,85.9,68.4,30.20,SE,141,3.0,6.0,56,0.00,,---,0.00,VWS V14.01,2013-07-14 18:03:00,
2013-07-14 14:08:00,85.7,67.7,30.20,SE,131,4.0,10.0,55,0.00,,---,0.00,VWS V14.01,2013-07-14 18:08:00,
2013-07-14 14:13:00,86.1,69.1,30.20,SE,141,7.0,10.0,57,0.00,,---,0.00,VWS V14.01,2013-07-14 18:13:00,
2013-07-14 14:18:00,86.2,69.2,30.20,SSW,197,5.0,10.0,57,0.00,,---,0.00,VWS V14.01,2013-07-14 18:18:00,
2013-07-14 14:23:00,86.4,68.3,30.20,SSE,158,5.0,10.0,55,0.00,,---,0.00,VWS V14.01,2013-07-14 18:23:00,
2013-07-14 14:28:00,86.7,68.6,30.20,ENE,65,4.0,10.0,55,0.00,,---,0.00,VWS V14.01,2013-07-14 18:28:00,
2013-07-14 14:33:00,86.4,68.9,30.20,ESE,111,10.0,11.0,56,0.00,,---,0.00,VWS V14.01,2013-07-14 18:33:00,
2013-07-14 14:38:00,86.3,69.3,30.20,South,187,6.0,12.0,57,0.00,,---,0.00,VWS V14.01,2013-07-14 18:38:00,
2013-07-14 14:43:00,86.3,67.7,30.20,ESE,113,2.0,12.0,54,0.00,,---,0.00,VWS V14.01,2013-07-14 18:43:00,
2013-07-14 14:48:00,86.7,69.1,30.20,SSE,159,2.0,12.0,56,0.00,,---,0.00,VWS V14.01,2013-07-14 18:48:00,
2013-07-14 14:54:00,86.9,68.8,30.20,SE,145,6.0,12.0,55,0.00,,---,0.00,VWS V14.01,2013-07-14 18:54:00,
2013-07-14 14:59:00,87.1,70.0,30.20,East,88,1.0,12.0,57,0.00,,---,0.00,VWS V14.01,2013-07-14 18:59:00,
2013-07-14 15:00:00,85.7,68.2,30.20,SSE,160,4.0,10.0,56,0.00,,---,0.00,VWS V14.01,2013-07-14 19:00:00,
2013-07-14 15:04:00,86.4,67.8,30.20,SE,139,3.0,5.0,54,0.00,,---,0.00,VWS V14.01,2013-07-14 19:04:00,
2013-07-14 15:09:00,85.9,68.4,30.20,ESE,106,4.0,5.0,56,0.00,,---,0.00,VWS V14.01,2013-07-14 19:09:00,
2013-07-14 15:14:00,85.9,68.4,30.20,SSW,195,2.0,6.0,56,0.00,,---,0.00,VWS V14.01,2013-07-14 19:14:00,
2013-07-14 15:19:00,86.5,70.5,30.20,West,263,0.0,6.0,59,0.00,,---,0.00,VWS V14.01,2013-07-14 19:19:00,
2013-07-14 15:24:00,87.1,69.5,30.20,SE,143,4.0,6.0,56,0.00,,---,0.00,VWS V14.01,2013-07-14 19:24:00,
2013-07-14 15:29:00,86.9,69.3,30.20,ESE,121,5.0,7.0,56,0.00,,---,0.00,VWS V14.01,2013-07-14 19:29:00,
2013-07-14 15:34:00,86.7,69.1,30.19,SSW,203,3.0,7.0,56,0.00,,---,0.00,VWS V14.01,2013-07-14 19:34:00,
2013-07-14 15:39:00,87.0,69.4,30.19,NE,56,5.0,7.0,56,0.00,,---,0.00,VWS V14.01,2013-07-14 19:39:00,
2013-07-14 15:44:00,86.5,69.0,30.19,ESE,121,4.0,7.0,56,0.00,,---,0.00,VWS V14.01,2013-07-14 19:44:00,
2013-07-14 15:49:00,86.0,70.0,30.19,SE,131,1.0,7.0,59,0.00,,---,0.00,VWS V14.01,2013-07-14 19:49:00,
2013-07-14 15:54:00,86.4,68.9,30.19,SE,134,0.0,7.0,56,0.00,,---,0.00,VWS V14.01,2013-07-14 19:54:00,
2013-07-14 16:00:00,86.9,69.3,30.19,South,180,3.0,7.0,56,0.00,,---,0.00,VWS V14.01,2013-07-14 20:00:00,
2013-07-14 16:05:00,87.2,69.1,30.19,ESE,118,4.0,7.0,55,0.00,,---,0.00,VWS V14.01,2013-07-14 20:05:00,
2013-07-14 16:10:00,87.7,68.5,30.18,SW,225,0.0,7.0,53,0.00,,---,0.00,VWS V14.01,2013-07-14 20:10:00,
2013-07-14 16:15:00,87.9,69.7,30.18,ENE,76,6.0,7.0,55,0.00,,---,0.00,VWS V14.01,2013-07-14 20:15:00,
2013-07-14 16:20:00,87.1,69.5,30.18,SSE,163,4.0,7.0,56,0.00,,---,0.00,VWS V14.01,2013-07-14 20:20:00,
2013-07-14 16:25:00,87.0,68.4,30.19,SW,218,3.0,7.0,54,0.00,,---,0.00,VWS V14.01,2013-07-14 20:25:00,
2013-07-14 16:30:00,86.8,68.7,30.18,SSE,152,1.0,7.0,55,0.00,,---,0.00,VWS V14.01,2013-07-14 20:30:00,
2013-07-14 16:35:00,86.9,69.3,30.18,SE,135,4.0,7.0,56,0.00,,---,0.00,VWS V14.01,2013-07-14 20:35:00,
2013-07-14 16:40:00,86.2,69.2,30.18,SE,124,6.0,7.0,57,0.00,,---,0.00,VWS V14.01,2013-07-14 20:40:00,
2013-07-14 16:45:00,85.9,68.9,30.18,ESE,102,0.0,7.0,57,0.00,,---,0.00,VWS V14.01,2013-07-14 20:45:00,
2013-07-14 16:50:00,86.4,69.4,30.18,East,100,2.0,7.0,57,0.00,,---,0.00,VWS V14.01,2013-07-14 20:50:00,
2013-07-14 16:55:00,86.9,69.3,30.18,NW,311,2.0,7.0,56,0.00,,---,0.00,VWS V14.01,2013-07-14 20:55:00,
2013-07-14 17:00:00,87.0,69.9,30.18,East,93,2.0,10.0,57,0.00,,---,0.00,VWS V14.01,2013-07-14 21:00:00,
2013-07-14 17:06:00,87.3,69.7,30.18,ESE,110,5.0,6.0,56,0.00,,---,0.00,VWS V14.01,2013-07-14 21:06:00,
2013-07-14 17:11:00,86.8,69.2,30.19,East,88,7.0,7.0,56,0.00,,---,0.00,VWS V14.01,2013-07-14 21:11:00,
2013-07-14 17:16:00,86.2,69.2,30.19,SE,127,3.0,7.0,57,0.00,,---,0.00,VWS V14.01,2013-07-14 21:16:00,
2013-07-14 17:21:00,85.7,68.7,30.18,SE,124,3.0,7.0,57,0.00,,---,0.00,VWS V14.01,2013-07-14 21:21:00,
2013-07-14 17:26:00,85.4,69.9,30.18,ESE,121,3.0,7.0,60,0.00,,---,0.00,VWS V14.01,2013-07-14 21:26:00,
2013-07-14 17:31:00,85.9,71.8,30.18,ESE,121,4.0,7.0,63,0.00,,---,0.00,VWS V14.01,2013-07-14 21:31:00,
2013-07-14 17:33:00,86.3,70.3,30.18,SE,139,1.0,7.0,59,0.00,,---,0.00,VWS V14.01,2013-07-14 21:33:00,
2013-07-14 17:38:00,87.1,70.5,30.18,SSW,203,1.0,7.0,58,0.00,,---,0.00,VWS V14.01,2013-07-14 21:38:00,
2013-07-14 17:43:00,87.8,69.6,30.18,SSW,204,2.0,7.0,55,0.00,,---,0.00,VWS V14.01,2013-07-14 21:43:00,
2013-07-14 17:48:00,88.2,69.5,30.18,ESE,121,4.0,7.0,54,0.00,,---,0.00,VWS V14.01,2013-07-14 21:48:00,
2013-07-14 17:53:00,87.3,70.2,30.18,ESE,117,3.0,7.0,57,0.00,,---,0.00,VWS V14.01,2013-07-14 21:53:00,
2013-07-14 17:58:00,86.6,70.1,30.18,ESE,103,3.0,7.0,58,0.00,,---,0.00,VWS V14.01,2013-07-14 21:58:00,
2013-07-14 18:00:00,87.0,69.9,30.18,East,93,2.0,10.0,57,0.00,,---,0.00,VWS V14.01,2013-07-14 22:00:00,
2013-07-14 18:03:00,86.5,70.0,30.18,ESE,122,3.0,5.0,58,0.00,,---,0.00,VWS V14.01,2013-07-14 22:03:00,
2013-07-14 18:08:00,87.0,69.9,30.18,SE,141,3.0,5.0,57,0.00,,---,0.00,VWS V14.01,2013-07-14 22:08:00,
2013-07-14 18:14:00,86.7,70.2,30.18,ESE,121,2.0,5.0,58,0.00,,---,0.00,VWS V14.01,2013-07-14 22:14:00,
2013-07-14 18:19:00,86.6,70.6,30.18,SE,142,2.0,5.0,59,0.00,,---,0.00,VWS V14.01,2013-07-14 22:19:00,
2013-07-14 18:24:00,86.4,70.4,30.18,SE,134,3.0,6.0,59,0.00,,---,0.00,VWS V14.01,2013-07-14 22:24:00,
2013-07-14 18:29:00,85.9,70.9,30.18,SE,135,3.0,6.0,61,0.00,,---,0.00,VWS V14.01,2013-07-14 22:29:00,
2013-07-14 18:34:00,85.5,71.0,30.18,ESE,107,2.0,6.0,62,0.00,,---,0.00,VWS V14.01,2013-07-14 22:34:00,
2013-07-14 18:39:00,85.0,71.0,30.18,East,96,3.0,6.0,63,0.00,,---,0.00,VWS V14.01,2013-07-14 22:39:00,
2013-07-14 18:44:00,84.7,70.7,30.18,ESE,102,3.0,6.0,63,0.00,,---,0.00,VWS V14.01,2013-07-14 22:44:00,
2013-07-14 18:49:00,84.4,70.9,30.18,ESE,106,2.0,6.0,64,0.00,,---,0.00,VWS V14.01,2013-07-14 22:49:00,
2013-07-14 18:54:00,84.2,70.7,30.18,ESE,108,2.0,6.0,64,0.00,,---,0.00,VWS V14.01,2013-07-14 22:54:00,
2013-07-14 18:59:00,84.1,70.6,30.18,ESE,103,2.0,6.0,64,0.00,,---,0.00,VWS V14.01,2013-07-14 22:59:00,
2013-07-14 19:00:00,86.4,70.4,30.18,South,180,5.0,7.0,59,0.00,,---,0.00,VWS V14.01,2013-07-14 23:00:00,
2013-07-14 19:04:00,84.2,70.7,30.18,ESE,105,2.0,3.0,64,0.00,,---,0.00,VWS V14.01,2013-07-14 23:04:00,
2013-07-14 19:10:00,84.2,70.7,30.17,East,98,2.0,3.0,64,0.00,,---,0.00,VWS V14.01,2013-07-14 23:10:00,
2013-07-14 19:15:00,84.4,70.9,30.17,ENE,62,2.0,4.0,64,0.00,,---,0.00,VWS V14.01,2013-07-14 23:15:00,
2013-07-14 19:20:00,84.6,71.1,30.17,ENE,70,2.0,4.0,64,0.00,,---,0.00,VWS V14.01,2013-07-14 23:20:00,
2013-07-14 19:25:00,84.6,72.0,30.17,East,82,2.0,4.0,66,0.00,,---,0.00,VWS V14.01,2013-07-14 23:25:00,
2013-07-14 19:30:00,84.5,71.4,30.17,East,84,1.0,4.0,65,0.00,,---,0.00,VWS V14.01,2013-07-14 23:30:00,
2013-07-14 19:35:00,84.3,71.7,30.18,ESE,105,1.0,4.0,66,0.00,,---,0.00,VWS V14.01,2013-07-14 23:35:00,
2013-07-14 19:40:00,84.3,71.7,30.18,ENE,75,0.0,4.0,66,0.00,,---,0.00,VWS V14.01,2013-07-14 23:40:00,
2013-07-14 19:45:00,84.2,72.1,30.18,ENE,76,2.0,4.0,67,0.00,,---,0.00,VWS V14.01,2013-07-14 23:45:00,
2013-07-14 19:50:00,84.1,72.4,30.17,ENE,78,1.0,4.0,68,0.00,,---,0.00,VWS V14.01,2013-07-14 23:50:00,
2013-07-14 19:55:00,83.8,72.6,30.18,East,97,1.0,4.0,69,0.00,,---,0.00,VWS V14.01,2013-07-14 23:55:00,
2013-07-14 20:00:00,83.5,72.3,30.17,East,90,1.0,4.0,69,0.00,,---,0.00,VWS V14.01,2013-07-15 00:00:00,
2013-07-14 20:05:00,83.3,72.5,30.18,East,90,1.0,1.0,70,0.00,,---,0.00,VWS V14.01,2013-07-15 00:05:00,
2013-07-14 20:11:00,83.2,72.0,30.18,East,90,1.0,1.0,69,0.00,,---,0.00,VWS V14.01,2013-07-15 00:11:00,
2013-07-14 20:16:00,83.1,73.6,30.18,ENE,72,2.0,2.0,73,0.00,,---,0.00,VWS V14.01,2013-07-15 00:16:00,
2013-07-14 20:21:00,82.6,73.5,30.18,ENE,72,0.0,2.0,74,0.00,,---,0.00,VWS V14.01,2013-07-15 00:21:00,
2013-07-14 20:26:00,82.7,73.6,30.18,ENE,72,0.0,2.0,74,0.00,,---,0.00,VWS V14.01,2013-07-15 00:26:00,
2013-07-14 20:31:00,82.8,73.7,30.18,ENE,73,0.0,2.0,74,0.00,,---,0.00,VWS V14.01,2013-07-15 00:31:00,
2013-07-14 20:36:00,82.9,72.9,30.18,East,88,1.0,2.0,72,0.00,,---,0.00,VWS V14.01,2013-07-15 00:36:00,
2013-07-14 20:41:00,82.9,73.4,30.18,East,88,1.0,2.0,73,0.00,,---,0.00,VWS V14.01,2013-07-15 00:41:00,
2013-07-14 20:46:00,82.7,73.6,30.18,East,86,1.0,2.0,74,0.00,,---,0.00,VWS V14.01,2013-07-15 00:46:00,
2013-07-14 20:51:00,82.3,73.6,30.18,East,88,1.0,2.0,75,0.00,,---,0.00,VWS V14.01,2013-07-15 00:51:00,
2013-07-14 20:56:00,81.6,73.3,30.18,ENE,75,1.0,2.0,76,0.00,,---,0.00,VWS V14.01,2013-07-15 00:56:00,
2013-07-14 21:00:00,83.5,72.3,30.18,East,91,1.0,4.0,69,0.00,,---,0.00,VWS V14.01,2013-07-15 01:00:00,
2013-07-14 21:01:00,81.0,73.1,30.18,East,89,1.0,1.0,77,0.00,,---,0.00,VWS V14.01,2013-07-15 01:01:00,
2013-07-14 21:06:00,80.8,72.5,30.18,East,88,1.0,2.0,76,0.00,,---,0.00,VWS V14.01,2013-07-15 01:06:00,
2013-07-14 21:11:00,80.6,72.7,30.18,East,88,1.0,2.0,77,0.00,,---,0.00,VWS V14.01,2013-07-15 01:11:00,
2013-07-14 21:17:00,80.2,72.7,30.18,ESE,106,2.0,2.0,78,0.00,,---,0.00,VWS V14.01,2013-07-15 01:17:00,
2013-07-14 21:22:00,80.2,72.3,30.18,ESE,108,1.0,4.0,77,0.00,,---,0.00,VWS V14.01,2013-07-15 01:22:00,
2013-07-14 21:27:00,80.3,72.4,30.18,SSE,152,1.0,4.0,77,0.00,,---,0.00,VWS V14.01,2013-07-15 01:27:00,
2013-07-14 21:32:00,80.2,72.3,30.18,SSE,158,1.0,4.0,77,0.00,,---,0.00,VWS V14.01,2013-07-15 01:32:00,
2013-07-14 21:37:00,80.0,72.2,30.19,South,191,4.0,4.0,77,0.00,,---,0.00,VWS V14.01,2013-07-15 01:37:00,
2013-07-14 21:42:00,79.9,72.4,30.19,SE,142,2.0,4.0,78,0.00,,---,0.00,VWS V14.01,2013-07-15 01:42:00,
2013-07-14 21:47:00,79.7,72.2,30.19,SE,139,3.0,4.0,78,0.00,,---,0.00,VWS V14.01,2013-07-15 01:47:00,
2013-07-14 21:52:00,79.7,72.2,30.19,SSE,149,1.0,4.0,78,0.00,,---,0.00,VWS V14.01,2013-07-15 01:52:00,
2013-07-14 21:57:00,79.5,72.0,30.19,SE,141,2.0,4.0,78,0.00,,---,0.00,VWS V14.01,2013-07-15 01:57:00,
2013-07-14 22:00:00,81.1,72.8,30.18,East,89,1.0,2.0,76,0.00,,---,0.00,VWS V14.01,2013-07-15 02:00:00,
2013-07-14 22:02:00,79.4,71.9,30.20,SE,129,2.0,2.0,78,0.00,,---,0.00,VWS V14.01,2013-07-15 02:02:00,
2013-07-14 22:07:00,79.3,71.8,30.20,SE,141,2.0,3.0,78,0.00,,---,0.00,VWS V14.01,2013-07-15 02:07:00,
2013-07-14 22:12:00,79.2,71.8,30.20,SE,141,2.0,3.0,78,0.00,,---,0.00,VWS V14.01,2013-07-15 02:12:00,
2013-07-14 22:17:00,79.0,71.6,30.20,SE,124,1.0,3.0,78,0.00,,---,0.00,VWS V14.01,2013-07-15 02:17:00,
2013-07-14 22:23:00,78.8,71.7,30.20,ESE,116,1.0,3.0,79,0.00,,---,0.00,VWS V14.01,2013-07-15 02:23:00,
2013-07-14 22:28:00,78.6,71.2,30.20,SE,124,1.0,3.0,78,0.00,,---,0.00,VWS V14.01,2013-07-15 02:28:00,
2013-07-14 22:33:00,78.4,71.3,30.20,ESE,121,1.0,3.0,79,0.00,,---,0.00,VWS V14.01,2013-07-15 02:33:00,
2013-07-14 22:38:00,78.2,71.2,30.20,ESE,121,0.0,3.0,79,0.00,,---,0.00,VWS V14.01,2013-07-15 02:38:00,
2013-07-14 22:43:00,78.0,71.0,30.20,ESE,112,2.0,3.0,79,0.00,,---,0.00,VWS V14.01,2013-07-15 02:43:00,
2013-07-14 22:48:00,77.9,70.9,30.20,SE,124,0.0,3.0,79,0.00,,---,0.00,VWS V14.01,2013-07-15 02:48:00,
2013-07-14 22:53:00,77.8,71.1,30.20,SE,124,1.0,3.0,80,0.00,,---,0.00,VWS V14.01,2013-07-15 02:53:00,
2013-07-14 22:58:00,77.5,70.8,30.20,SE,124,0.0,3.0,80,0.00,,---,0.00,VWS V14.01,2013-07-15 02:58:00,
2013-07-14 23:00:00,79.5,72.0,30.20,SSE,149,1.0,4.0,78,0.00,,---,0.00,VWS V14.01,2013-07-15 03:00:00,
2013-07-14 23:03:00,77.1,70.8,30.21,SE,124,0.0,0.0,81,0.00,,---,0.00,VWS V14.01,2013-07-15 03:03:00,
2013-07-14 23:08:00,76.9,71.0,30.21,SE,124,0.0,1.0,82,0.00,,---,0.00,VWS V14.01,2013-07-15 03:08:00,
2013-07-14 23:13:00,76.6,70.7,30.21,SE,124,0.0,1.0,82,0.00,,---,0.00,VWS V14.01,2013-07-15 03:13:00,
2013-07-14 23:18:00,76.2,70.7,30.21,SE,124,0.0,1.0,83,0.00,,---,0.00,VWS V14.01,2013-07-15 03:18:00,
2013-07-14 23:24:00,75.8,70.3,30.22,South,180,0.0,1.0,83,0.00,,---,0.00,VWS V14.01,2013-07-15 03:24:00,
2013-07-14 23:29:00,75.7,70.2,30.22,ESE,123,1.0,1.0,83,0.00,,---,0.00,VWS V14.01,2013-07-15 03:29:00,
2013-07-14 23:34:00,75.7,70.2,30.22,SE,132,1.0,1.0,83,0.00,,---,0.00,VWS V14.01,2013-07-15 03:34:00,
2013-07-14 23:39:00,75.6,70.1,30.22,SE,132,1.0,2.0,83,0.00,,---,0.00,VWS V14.01,2013-07-15 03:39:00,
2013-07-14 23:44:00,75.6,70.1,30.22,ESE,121,1.0,2.0,83,0.00,,---,0.00,VWS V14.01,2013-07-15 03:44:00,
2013-07-14 23:49:00,75.6,69.7,30.22,SE,128,1.0,2.0,82,0.00,,---,0.00,VWS V14.01,2013-07-15 03:49:00,
2013-07-14 23:54:00,75.6,69.7,30.22,SE,135,0.0,2.0,82,0.00,,---,0.00,VWS V14.01,2013-07-15 03:54:00,
2013-07-14 23:59:00,75.5,69.6,30.22,SSE,155,1.0,3.0,82,0.00,,---,0.00,VWS V14.01,2013-07-15 03:59:00,